Location: Colonia Mina de C?rbuni
(46.1667°N, 22.7167°E)
Time: 11:13:33
(UTC+00:00)

Vanguard 1 - Pass Details

Date: 18 April 2024
Orbit: 652 x 3825 km, 34.2° (Epoch: 25 May)

Event Time Altitude Azimuth Distance (km) Brightness Sun altitude
Exits shadow 23:55:22 10° 159° (SSE) 6,835 13.9 -29.7°
Reaches altitude 10° 23:55:27 10° 159° (SSE) 6,827 13.9 -29.7°
Maximum altitude 00:03:45 13° 137° (SE) 6,218 13.9 -29.0°
Drops below altitude 10° 00:11:10 10° 114° (ESE) 6,057 14.1 -28.4°
Sets 00:18:55 0° 92° (E) 6,420 14.6 -27.8°
